User: anonymous   Login
Location: A�n Tadlesse
(35.0351°N, 0.5353°E)
Time: 23:48:58
(UTC+00:00)
Language:

CENTAUR R/B - Orbit

View from above orbital plane
View from above orbital plane
View from above satellite
View from above satellite

Ground track
Ground track

The orbit data is extracted from the following two-line orbital elements,

1 26906U 01040B   19335.69013687 0.00000000  00000-0  00000-0 0    02
2 26906  63.4485 190.9766 0422002 339.3543  20.6457 13.44050607    07
Epoch (UTC): 01 December 2019 16:33:47
Eccentricity: 0.0422002
inclination: 63.4485°
perigee height: 779 km
apogee height: 1409 km
right ascension of ascending node: 190.9766°
argument of perigee: 339.3543°
revolutions per day: 13.44050607
mean anomaly at epoch: 20.6457°
orbit number at epoch: 0

The dashed part of the orbit path shows where the satellite is in the earth's shadow,  

DLR